This demonstration page uses our WeatherBlox Daily Observations layout. Learn more.

Left ArrowRight Arrow

Hourly Observations for May 6, 2021

Temp ( °F °C ) Dew Point ( °F °C ) Humidity (%) Winds ( mph kmh ) Pressure ( in mb ) Visibility ( mi km ) Precip ( " mm )
12:53 am 00:53 Clear 59 15 49 9.4 69 69 NNW 7 11 30.04 1017 10 16 0.00 0.00
1:53 am 01:53 Clear 57 13.9 47 8.3 69 69 NNW 8 13 30.04 1017 10 16 0.00 0.00
2:53 am 02:53 Clear 55 12.8 47 8.3 74 74 NW 7 11 30.03 1017 10 16 0.00 0.00
3:53 am 03:53 Clear 53 11.7 47 8.3 80 80 NW 7 11 30.04 1017 10 16 0.00 0.00
4:53 am 04:53 Clear 52 11.1 47 8.3 83 83 VRB 3 6 30.04 1017 10 16 0.00 0.00
5:53 am 05:53 Clear 51 10.6 47 8.3 86 86 NW 6 9 30.05 1018 10 16 0.00 0.00
6:53 am 06:53 Sunny 50 10 47 8.3 89 89 Calm 30.07 1018 10 16 0.00 0.00
7:53 am 07:53 Sunny 52 11.1 49 9.4 89 89 Calm 30.08 1019 10 16 0.00 0.00
8:53 am 08:53 Sunny 56 13.3 48 8.9 75 75 N 7 11 30.08 1019 10 16 0.00 0.00
9:53 am 09:53 Sunny 60 15.6 47 8.3 62 62 NW 9 15 30.09 1019 10 16 0.00 0.00
10:53 am 10:53 Sunny 63 17.2 47 8.3 56 56 NNW 12 19 30.09 1019 10 16 0.00 0.00
11:53 am 11:53 Sunny 65 18.3 45 7.2 49 49 NW 13 20 30.09 1019 10 16 0.00 0.00
12:53 pm 12:53 Sunny 68 20 43 6.1 40 40 undefined N/A 30.06 1018 10 16 0.00 0.00
1:53 pm 13:53 Sunny 68 20 40 4.4 36 36 WNW 13 20 30.04 1017 10 16 0.00 0.00
2:53 pm 14:53 Sunny 70 21.1 40 4.4 34 34 NNW 7 11 30.02 1017 10 16 0.00 0.00
3:53 pm 15:53 Sunny 71 21.7 41 5 34 34 NW 13 20 30.01 1016 10 16 0.00 0.00
4:53 pm 16:53 Sunny 71 21.7 41 5 34 34 WNW 14 22 29.99 1016 10 16 0.00 0.00
5:53 pm 17:53 Sunny 71 21.7 40 4.4 32 32 WNW 14 22 29.99 1016 10 16 0.00 0.00
6:53 pm 18:53 Sunny 70 21.1 42 5.6 37 37 NW 12 19 29.99 1016 10 16 0.00 0.00
7:53 pm 19:53 Sunny 68 20 40 4.4 36 36 W 7 11 29.98 1015 10 16 0.00 0.00
8:53 pm 20:53 Clear 64 17.8 42 5.6 45 45 WNW 6 9 30.00 1016 10 16 0.00 0.00
9:53 pm 21:53 Clear 62 16.7 44 6.7 52 52 Calm 30.01 1016 10 16 0.00 0.00
10:53 pm 22:53 Partly Cloudy 61 16.1 43 6.1 52 52 W 7 11 30.03 1017 10 16 0.00 0.00
11:53 pm 23:53 Mostly Cloudy 60 15.6 43 6.1 53 53 NW 9 15 30.04 1017 10 16 0.00 0.00

Powered by AerisWeather